Simultaneous Nadir Overpasses (SNOs) Predictions

Prediction of SNOs between FY3D and NOAA-19 Satellite Orbit:

Table of predicted SNOs for the next 14.0 days since TLE Epoch: 12/2/2023
Index Date (FY3D) Time (FY3D) Lat,Lon (FY3D) SZA (FY3D ) Date (NOAA-19) Time (NOAA-19) Lat,Lon (NOAA-19) SZA (NOAA-19 ) Distance(km) Time Diff (sec)
1 12/11/2023 00:04:08 -76.07, -5.49 81.04 12/11/2023 00:02:56 -76.05, -6.86 81.04 36.99 72
2 12/11/2023 00:54:59 76.26, 161.13 99.17 12/11/2023 00:53:50 76.26, 161.19 99.17 1.61 69
3 12/11/2023 01:45:43 -76.24, -31.49 80.86 12/11/2023 01:44:50 -76.25, -31.61 80.85 3.22 53
4 12/11/2023 02:36:30 76.26, 135.77 99.17 12/11/2023 02:35:48 76.28, 135.79 99.20 3.16 42
5 12/11/2023 03:27:15 -76.28, -57.01 80.81 12/11/2023 03:26:48 -76.27, -57.01 80.82 1.09 27
6 12/11/2023 04:18:02 76.29, 110.25 99.21 12/11/2023 04:17:47 76.26, 110.22 99.18 3.48 15
7 12/11/2023 05:08:46 -76.28, -82.36 80.81 12/11/2023 05:08:46 -76.30, -82.40 80.79 2.63 0
8 12/11/2023 05:59:33 76.29, 84.90 99.21 12/11/2023 05:59:45 76.29, 84.82 99.21 2.09 12
9 12/11/2023 06:50:18 -76.31,-107.88 80.76 12/11/2023 06:50:44 -76.32,-107.80 80.76 2.24 26
10 12/11/2023 07:41:05 76.33, 59.38 99.26 12/11/2023 07:41:43 76.31, 59.42 99.24 1.92 38
11 12/11/2023 08:31:49 -76.31,-133.24 80.76 12/11/2023 08:32:43 -76.30,-133.37 80.77 3.51 54
12 12/11/2023 09:22:36 76.32, 34.02 99.26 12/11/2023 09:23:41 76.34, 34.02 99.27 1.80 65
13 12/11/2023 10:13:26 -76.57,-159.60 80.48 12/11/2023 10:14:37 -76.50,-158.09 80.57 39.85 71



Historial Predications of SNOs between FY3D and NOAA-19
